Precipitable_Water
1.83 1.83 1.86 1.83 1.78 1.73 1.71 1.61 1.54 1.44 1.33 1.26 1.17 1.15 1.14 1.04 0.92 0.87 0.77 0.65 0.69 0.68 0.63 0.62 0.66 0.67 0.61 0.58 0.58 0.55 0.72 0.74 0.72 0.68 0.64 0.67 0.68 0.67 0.62 0.61 0.60 0.61 0.58 0.60 0.60 0.60 0.58 0.60 0.55 0.52 0.49 0.57 0.57 0.64 0.66 0.57 0.64 0.51 0.65 0.55 0.58 0.65 0.61 0.54 0.48 0.47 0.56 0.64 0.61 0.60 0.68 0.64 0.59 0.66 0.62 0.64 0.64 0.62 0.64 0.70 0.72 0.69 0.78 0.84 0.79
1.86 1.87 1.87 1.85 1.78 1.73 1.70 1.62 1.53 1.38 1.28 1.20 1.12 1.15 1.06 1.00 0.98 0.85 0.72 0.62 0.59 0.54 0.49 0.59 0.67 0.68 0.69 0.65 0.62 0.62 0.69 0.66 0.62 0.61 0.66 0.64 0.65 0.64 0.62 0.66 0.61 0.64 0.62 0.61 0.62 0.54 0.62 0.60 0.49 0.51 0.45 0.53 0.61 0.56 0.66 0.64 0.64 0.51 0.67 0.56 0.63 0.64 0.64 0.57 0.54 0.50 0.49 0.58 0.59 0.65 0.66 0.62 0.58 0.63 0.60 0.62 0.62 0.65 0.64 0.68 0.69 0.71 0.79 0.81 0.78
1.93 1.92 1.87 1.84 1.78 1.71 1.73 1.58 1.45 1.33 1.23 1.15 1.13 1.10 1.03 1.04 0.93 0.79 0.63 0.57 0.55 0.67 0.70 0.69 0.66 0.68 0.64 0.66 0.69 0.71 0.70 0.65 0.69 0.66 0.64 0.64 0.66 0.65 0.60 0.63 0.60 0.64 0.63 0.63 0.63 0.59 0.58 0.58 0.48 0.48 0.45 0.48 0.56 0.52 0.65 0.69 0.65 0.55 0.62 0.63 0.64 0.63 0.62 0.64 0.57 0.50 0.50 0.52 0.60 0.60 0.60 0.62 0.60 0.61 0.68 0.69 0.68 0.66 0.63 0.61 0.65 0.67 0.75 0.80 0.76
1.92 1.89 1.83 1.77 1.70 1.65 1.58 1.49 1.36 1.26 1.18 1.15 1.11 1.05 1.05 0.96 0.86 0.73 0.60 0.60 0.70 0.68 0.65 0.70 0.62 0.66 0.65 0.68 0.68 0.72 0.71 0.73 0.72 0.71 0.72 0.66 0.65 0.67 0.66 0.67 0.63 0.63 0.65 0.66 0.67 0.58 0.57 0.57 0.51 0.47 0.42 0.43 0.52 0.47 0.63 0.70 0.68 0.69 0.62 0.63 0.63 0.62 0.61 0.62 0.61 0.55 0.56 0.53 0.57 0.58 0.59 0.60 0.62 0.65 0.64 0.66 0.64 0.61 0.64 0.64 0.62 0.62 0.67 0.73 0.72
1.85 1.80 1.72 1.65 1.64 1.58 1.47 1.38 1.27 1.23 1.18 1.15 1.09 1.05 0.97 0.89 0.79 0.67 0.68 0.71 0.70 0.66 0.62 0.67 0.70 0.75 0.77 0.75 0.74 0.74 0.74 0.67 0.72 0.71 0.68 0.72 0.68 0.68 0.69 0.67 0.66 0.62 0.65 0.65 0.63 0.58 0.57 0.58 0.52 0.48 0.43 0.38 0.44 0.52 0.61 0.62 0.70 0.71 0.68 0.68 0.67 0.64 0.62 0.62 0.60 0.58 0.56 0.55 0.54 0.61 0.62 0.61 0.61 0.61 0.64 0.57 0.57 0.58 0.60 0.60 0.58 0.58 0.58 0.65 0.68
1.82 1.75 1.65 1.58 1.55 1.45 1.37 1.32 1.25 1.21 1.17 1.12 1.07 0.99 0.92 0.85 0.76 0.71 0.72 0.67 0.59 0.60 0.71 0.76 0.80 0.77 0.74 0.74 0.80 0.75 0.78 0.80 0.71 0.70 0.79 0.77 0.78 0.78 0.71 0.74 0.68 0.68 0.62 0.64 0.66 0.62 0.59 0.59 0.53 0.51 0.42 0.39 0.42 0.50 0.55 0.61 0.68 0.68 0.67 0.64 0.63 0.59 0.58 0.59 0.53 0.58 0.60 0.58 0.57 0.56 0.59 0.56 0.56 0.61 0.60 0.57 0.54 0.54 0.54 0.55 0.56 0.59 0.57 0.59 0.65
1.77 1.69 1.61 1.53 1.47 1.37 1.32 1.28 1.24 1.19 1.14 1.08 1.01 0.92 0.87 0.79 0.75 0.70 0.69 0.63 0.67 0.68 0.64 0.71 0.79 0.75 0.71 0.81 0.84 0.75 0.78 0.76 0.80 0.80 0.79 0.80 0.84 0.85 0.84 0.77 0.72 0.61 0.65 0.62 0.66 0.63 0.62 0.62 0.57 0.54 0.47 0.41 0.38 0.47 0.47 0.56 0.62 0.60 0.58 0.59 0.57 0.54 0.52 0.52 0.50 0.57 0.58 0.55 0.55 0.57 0.54 0.59 0.59 0.55 0.55 0.57 0.58 0.57 0.50 0.44 0.41 0.52 0.57 0.57 0.58
1.67 1.64 1.57 1.49 1.40 1.31 1.30 1.27 1.23 1.18 1.09 1.03 0.93 0.85 0.79 0.74 0.71 0.71 0.65 0.65 0.69 0.71 0.69 0.66 0.74 0.77 0.68 0.74 0.78 0.84 0.87 0.84 0.80 0.82 0.77 0.79 0.79 0.84 0.83 0.80 0.81 0.68 0.65 0.58 0.66 0.68 0.67 0.66 0.62 0.60 0.55 0.49 0.43 0.46 0.43 0.45 0.56 0.51 0.49 0.45 0.43 0.42 0.41 0.44 0.51 0.56 0.56 0.54 0.52 0.52 0.53 0.53 0.54 0.54 0.50 0.49 0.52 0.50 0.49 0.45 0.42 0.46 0.52 0.56 0.63
1.64 1.58 1.50 1.41 1.32 1.29 1.28 1.25 1.21 1.11 1.04 0.95 0.85 0.80 0.76 0.70 0.73 0.68 0.65 0.65 0.70 0.72 0.72 0.71 0.77 0.80 0.79 0.79 0.83 0.87 0.89 0.85 0.84 0.81 0.76 0.77 0.77 0.74 0.80 0.84 0.84 0.76 0.71 0.66 0.67 0.69 0.71 0.70 0.67 0.64 0.62 0.58 0.58 0.58 0.53 0.51 0.46 0.49 0.49 0.55 0.53 0.48 0.37 0.42 0.48 0.49 0.52 0.50 0.52 0.51 0.50 0.49 0.47 0.42 0.38 0.45 0.45 0.42 0.45 0.47 0.44 0.50 0.52 0.51 0.59
1.58 1.51 1.46 1.39 1.32 1.28 1.25 1.21 1.13 1.02 0.97 0.88 0.78 0.79 0.73 0.62 0.69 0.67 0.65 0.70 0.68 0.74 0.76 0.77 0.80 0.80 0.79 0.80 0.84 0.89 0.89 0.87 0.90 0.85 0.80 0.74 0.76 0.72 0.76 0.82 0.84 0.81 0.80 0.75 0.65 0.70 0.74 0.70 0.69 0.67 0.66 0.63 0.63 0.63 0.62 0.64 0.66 0.65 0.62 0.60 0.58 0.53 0.49 0.48 0.49 0.49 0.44 0.43 0.46 0.47 0.46 0.42 0.40 0.37 0.38 0.40 0.38 0.40 0.39 0.42 0.40 0.44 0.46 0.48 0.55
1.53 1.50 1.43 1.36 1.31 1.27 1.21 1.12 1.03 0.96 0.94 0.86 0.73 0.75 0.71 0.49 0.70 0.68 0.65 0.69 0.70 0.72 0.74 0.74 0.76 0.81 0.85 0.85 0.86 0.93 0.91 0.93 0.89 0.88 0.82 0.77 0.75 0.72 0.70 0.80 0.87 0.83 0.83 0.70 0.67 0.67 0.67 0.66 0.73 0.71 0.70 0.67 0.67 0.65 0.68 0.68 0.71 0.75 0.72 0.71 0.67 0.61 0.55 0.53 0.51 0.53 0.48 0.45 0.44 0.42 0.41 0.41 0.41 0.41 0.40 0.38 0.39 0.35 0.37 0.41 0.41 0.43 0.42 0.41 0.39
1.51 1.47 1.40 1.34 1.28 1.21 1.14 1.04 0.97 0.97 0.92 0.84 0.71 0.66 0.71 0.58 0.66 0.67 0.69 0.68 0.73 0.72 0.71 0.78 0.85 0.88 0.88 0.93 0.96 0.94 0.95 0.94 0.91 0.89 0.83 0.76 0.71 0.68 0.70 0.79 0.86 0.85 0.84 0.74 0.68 0.68 0.65 0.61 0.75 0.71 0.69 0.66 0.64 0.67 0.69 0.67 0.70 0.76 0.72 0.73 0.73 0.69 0.67 0.62 0.58 0.54 0.51 0.48 0.47 0.47 0.45 0.44 0.43 0.44 0.44 0.42 0.39 0.33 0.35 0.37 0.43 0.44 0.43 0.43 0.48
1.50 1.41 1.36 1.29 1.23 1.15 1.06 0.98 0.95 0.94 0.89 0.80 0.67 0.67 0.67 0.65 0.62 0.67 0.68 0.70 0.72 0.75 0.77 0.81 0.84 0.88 0.86 0.83 0.87 0.93 0.94 0.93 0.93 0.89 0.81 0.73 0.69 0.67 0.73 0.83 0.89 0.85 0.87 0.85 0.77 0.71 0.67 0.61 0.58 0.72 0.71 0.73 0.66 0.64 0.64 0.66 0.69 0.72 0.75 0.73 0.74 0.76 0.72 0.69 0.67 0.63 0.58 0.55 0.52 0.49 0.51 0.49 0.46 0.48 0.51 0.49 0.45 0.34 0.33 0.37 0.46 0.49 0.50 0.47 0.49
1.43 1.36 1.29 1.23 1.15 1.05 0.99 0.96 0.93 0.91 0.83 0.78 0.62 0.64 0.65 0.64 0.62 0.66 0.68 0.72 0.73 0.72 0.82 0.83 0.86 0.85 0.83 0.83 0.84 0.87 0.92 0.94 0.93 0.89 0.82 0.73 0.68 0.68 0.74 0.85 0.95 0.92 0.92 0.89 0.81 0.74 0.70 0.58 0.59 0.78 0.77 0.74 0.69 0.67 0.64 0.64 0.65 0.64 0.70 0.73 0.71 0.76 0.74 0.72 0.72 0.72 0.69 0.62 0.60 0.56 0.57 0.57 0.52 0.54 0.56 0.54 0.48 0.41 0.36 0.38 0.46 0.48 0.49 0.49 0.52
1.33 1.27 1.22 1.14 1.05 0.98 0.95 0.92 0.90 0.89 0.82 0.75 0.63 0.64 0.64 0.65 0.66 0.70 0.69 0.69 0.71 0.76 0.80 0.83 0.83 0.88 0.88 0.89 0.87 0.93 0.95 0.97 0.93 0.89 0.83 0.76 0.70 0.69 0.75 0.86 0.96 0.97 0.89 0.88 0.82 0.78 0.77 0.72 0.74 0.73 0.72 0.72 0.72 0.72 0.67 0.65 0.63 0.61 0.66 0.71 0.75 0.75 0.76 0.76 0.76 0.72 0.69 0.68 0.68 0.65 0.64 0.64 0.63 0.61 0.59 0.58 0.54 0.52 0.47 0.42 0.48 0.50 0.52 0.57 0.59
1.28 1.24 1.14 1.02 0.94 0.95 0.93 0.91 0.90 0.87 0.81 0.74 0.65 0.61 0.60 0.64 0.66 0.72 0.71 0.68 0.72 0.77 0.79 0.84 0.90 0.91 0.89 0.85 0.87 0.88 0.95 0.94 0.91 0.89 0.86 0.78 0.73 0.72 0.75 0.84 0.93 0.96 0.87 0.85 0.84 0.80 0.80 0.81 0.79 0.72 0.77 0.77 0.78 0.77 0.74 0.69 0.64 0.62 0.62 0.68 0.74 0.78 0.77 0.79 0.79 0.77 0.75 0.76 0.76 0.72 0.69 0.71 0.73 0.71 0.67 0.62 0.59 0.58 0.58 0.51 0.50 0.50 0.49 0.48 0.47
1.20 1.12 1.07 1.01 0.94 0.94 0.91 0.90 0.90 0.84 0.80 0.65 0.66 0.66 0.65 0.66 0.70 0.72 0.69 0.69 0.72 0.78 0.84 0.84 0.86 0.84 0.85 0.88 0.87 0.85 0.87 0.91 0.94 0.91 0.86 0.79 0.76 0.73 0.74 0.80 0.90 0.92 0.87 0.90 0.86 0.82 0.80 0.84 0.85 0.80 0.72 0.71 0.80 0.77 0.72 0.69 0.65 0.64 0.63 0.63 0.68 0.75 0.77 0.84 0.83 0.81 0.80 0.80 0.78 0.80 0.77 0.76 0.75 0.75 0.72 0.67 0.63 0.62 0.58 0.51 0.47 0.46 0.42 0.40 0.40
1.12 1.12 1.08 1.04 0.96 0.91 0.89 0.89 0.86 0.84 0.74 0.72 0.56 0.67 0.67 0.70 0.69 0.70 0.67 0.70 0.71 0.77 0.82 0.84 0.84 0.84 0.84 0.85 0.87 0.85 0.87 0.96 0.91 0.87 0.84 0.83 0.78 0.73 0.72 0.75 0.85 0.92 0.86 0.85 0.86 0.84 0.83 0.81 0.80 0.82 0.77 0.71 0.76 0.77 0.74 0.72 0.67 0.67 0.66 0.66 0.66 0.66 0.71 0.81 0.84 0.88 0.86 0.82 0.80 0.83 0.83 0.80 0.77 0.75 0.76 0.72 0.67 0.66 0.60 0.50 0.52 0.50 0.45 0.42 0.37
1.13 1.10 1.08 1.05 0.98 0.93 0.94 0.92 0.88 0.83 0.66 0.69 0.67 0.67 0.66 0.67 0.66 0.72 0.71 0.71 0.73 0.76 0.78 0.78 0.82 0.82 0.83 0.85 0.84 0.83 0.82 0.85 0.91 0.91 0.88 0.85 0.79 0.76 0.75 0.77 0.78 0.82 0.85 0.88 0.90 0.86 0.83 0.87 0.89 0.90 0.88 0.86 0.87 0.85 0.80 0.76 0.71 0.70 0.70 0.69 0.68 0.67 0.70 0.75 0.78 0.79 0.81 0.79 0.78 0.82 0.83 0.82 0.78 0.76 0.78 0.75 0.72 0.70 0.67 0.62 0.61 0.53 0.46 0.44 0.42
1.19 1.14 1.10 1.08 1.06 1.06 1.00 1.01 0.94 0.86 0.76 0.68 0.64 0.67 0.68 0.65 0.68 0.67 0.68 0.70 0.70 0.72 0.75 0.79 0.79 0.83 0.88 0.88 0.88 0.90 0.89 0.90 0.94 0.93 0.88 0.83 0.80 0.76 0.74 0.71 0.71 0.77 0.81 0.84 0.82 0.80 0.83 0.90 0.92 0.93 0.94 0.95 0.93 0.90 0.85 0.80 0.76 0.74 0.74 0.70 0.68 0.67 0.75 0.78 0.80 0.79 0.77 0.77 0.79 0.83 0.83 0.85 0.83 0.82 0.80 0.75 0.74 0.74 0.67 0.66 0.62 0.56 0.51 0.47 0.43
1.23 1.19 1.18 1.15 1.12 1.11 1.09 1.04 0.94 0.88 0.79 0.71 0.64 0.66 0.67 0.65 0.67 0.66 0.66 0.66 0.69 0.72 0.75 0.80 0.84 0.87 0.89 0.89 0.87 0.88 0.88 0.88 0.91 0.91 0.87 0.83 0.81 0.79 0.75 0.73 0.75 0.79 0.82 0.83 0.84 0.83 0.87 0.88 0.88 0.94 0.96 0.96 0.94 0.91 0.89 0.86 0.84 0.81 0.80 0.77 0.77 0.78 0.82 0.79 0.79 0.81 0.78 0.78 0.80 0.83 0.86 0.86 0.87 0.82 0.75 0.76 0.68 0.66 0.67 0.67 0.65 0.61 0.54 0.46 0.41
1.25 1.21 1.19 1.20 1.19 1.13 1.08 1.10 0.99 0.93 0.81 0.70 0.64 0.62 0.65 0.67 0.67 0.65 0.66 0.69 0.69 0.69 0.74 0.80 0.83 0.86 0.88 0.86 0.84 0.87 0.90 0.91 0.90 0.90 0.88 0.87 0.86 0.86 0.81 0.76 0.77 0.80 0.81 0.82 0.82 0.79 0.77 0.84 0.89 0.94 0.95 0.95 0.94 0.93 0.92 0.91 0.90 0.88 0.87 0.86 0.86 0.86 0.85 0.85 0.85 0.84 0.83 0.81 0.81 0.81 0.83 0.84 0.81 0.79 0.78 0.79 0.70 0.70 0.70 0.69 0.64 0.55 0.51 0.50 0.49
1.25 1.22 1.20 1.20 1.18 1.15 1.11 1.07 1.04 0.96 0.84 0.71 0.69 0.66 0.67 0.66 0.66 0.65 0.64 0.65 0.65 0.69 0.74 0.80 0.81 0.82 0.84 0.85 0.86 0.88 0.90 0.91 0.90 0.88 0.88 0.88 0.89 0.89 0.89 0.86 0.81 0.80 0.78 0.77 0.77 0.79 0.79 0.79 0.82 0.88 0.94 0.95 0.95 0.94 0.93 0.92 0.91 0.91 0.92 0.92 0.92 0.91 0.91 0.90 0.89 0.87 0.86 0.84 0.82 0.80 0.82 0.84 0.82 0.81 0.85 0.80 0.75 0.75 0.71 0.67 0.61 0.58 0.60 0.63 0.63
1.28 1.23 1.21 1.20 1.18 1.18 1.16 1.11 1.06 0.98 0.85 0.73 0.66 0.66 0.68 0.66 0.64 0.64 0.63 0.63 0.66 0.69 0.74 0.79 0.81 0.80 0.81 0.83 0.86 0.88 0.91 0.90 0.89 0.89 0.90 0.91 0.92 0.93 0.94 0.93 0.89 0.83 0.82 0.81 0.82 0.83 0.86 0.90 0.94 0.95 0.94 0.93 0.93 0.93 0.93 0.93 0.93 0.93 0.95 0.97 0.97 0.97 0.95 0.93 0.93 0.91 0.90 0.87 0.84 0.82 0.81 0.83 0.85 0.85 0.89 0.87 0.80 0.75 0.71 0.68 0.63 0.63 0.66 0.65 0.60
1.25 1.21 1.18 1.19 1.14 1.18 1.16 1.12 1.08 1.00 0.91 0.78 0.65 0.63 0.65 0.66 0.62 0.64 0.65 0.65 0.67 0.69 0.75 0.80 0.80 0.81 0.82 0.82 0.83 0.85 0.88 0.89 0.89 0.91 0.93 0.97 1.01 1.02 1.01 1.00 0.97 0.94 0.89 0.88 0.88 0.88 0.88 0.90 0.90 0.90 0.90 0.89 0.89 0.89 0.91 0.93 0.96 0.98 1.00 1.02 1.06 1.06 1.02 0.98 0.95 0.95 0.92 0.89 0.88 0.88 0.88 0.88 0.88 0.89 0.93 0.89 0.85 0.79 0.73 0.71 0.68 0.66 0.65 0.64 0.62
1.22 1.17 1.16 1.18 1.18 1.17 1.12 1.11 1.07 0.99 0.92 0.80 0.69 0.68 0.67 0.69 0.65 0.66 0.64 0.63 0.66 0.71 0.75 0.79 0.80 0.81 0.81 0.83 0.83 0.85 0.86 0.87 0.90 0.96 1.04 1.10 1.10 1.10 1.12 1.12 1.10 1.09 1.08 1.04 1.02 1.01 1.00 0.99 0.98 0.98 0.96 0.95 0.94 0.93 0.93 0.96 1.01 1.04 1.07 1.12 1.14 1.14 1.12 1.07 1.03 0.99 0.95 0.95 0.95 0.93 0.93 0.96 0.94 0.93 0.94 0.91 0.85 0.78 0.75 0.72 0.64 0.62 0.63 0.60 0.54
1.20 1.18 1.17 1.19 1.17 1.15 1.09 1.07 1.02 0.98 0.93 0.81 0.71 0.69 0.69 0.68 0.65 0.65 0.64 0.62 0.65 0.70 0.74 0.78 0.81 0.81 0.78 0.78 0.82 0.85 0.86 0.88 0.92 1.01 1.12 1.19 1.23 1.22 1.17 1.12 1.14 1.13 1.07 1.03 1.01 0.99 0.99 1.01 1.00 1.00 0.99 0.99 1.00 1.01 1.00 1.01 1.03 1.07 1.13 1.17 1.19 1.19 1.20 1.16 1.12 1.09 1.06 1.03 1.01 1.00 1.01 1.01 1.01 0.97 0.92 0.90 0.86 0.82 0.84 0.76 0.64 0.61 0.60 0.59 0.49
1.20 1.19 1.19 1.17 1.17 1.16 1.11 1.05 1.00 0.98 0.92 0.78 0.69 0.69 0.68 0.68 0.68 0.66 0.61 0.62 0.62 0.67 0.72 0.76 0.78 0.79 0.77 0.79 0.81 0.83 0.85 0.90 0.95 1.00 1.04 1.05 1.06 1.06 1.05 1.00 0.98 0.99 0.99 1.00 0.99 0.99 0.97 0.97 0.97 0.97 0.97 0.95 0.93 0.93 0.94 0.98 1.01 1.06 1.12 1.18 1.20 1.22 1.22 1.22 1.21 1.19 1.16 1.15 1.11 1.10 1.07 1.05 1.00 0.96 0.93 0.91 0.90 0.83 0.83 0.77 0.66 0.61 0.59 0.57 0.47
1.22 1.20 1.19 1.19 1.18 1.18 1.11 1.05 1.02 0.96 0.87 0.74 0.69 0.71 0.71 0.72 0.64 0.65 0.69 0.70 0.65 0.68 0.75 0.81 0.84 0.83 0.83 0.83 0.83 0.83 0.86 0.88 0.97 1.03 1.00 0.95 0.90 0.86 0.86 0.87 0.88 0.87 0.87 0.84 0.84 0.85 0.86 0.85 0.85 0.86 0.87 0.85 0.85 0.87 0.92 0.97 1.02 1.13 1.19 1.20 1.19 1.19 1.18 1.17 1.13 1.14 1.16 1.16 1.12 1.09 1.05 1.05 1.03 1.04 0.99 0.92 0.91 0.89 0.84 0.82 0.73 0.61 0.60 0.56 0.49
1.26 1.22 1.21 1.19 1.17 1.12 1.04 1.00 0.96 0.85 0.75 0.72 0.71 0.69 0.72 0.75 0.82 0.81 0.79 0.83 0.82 0.80 0.79 0.80 0.84 0.88 0.87 0.91 0.92 0.86 0.83 0.91 0.92 0.88 0.86 0.84 0.84 0.83 0.81 0.80 0.80 0.81 0.82 0.83 0.83 0.79 0.79 0.78 0.80 0.82 0.84 0.86 0.86 0.88 0.91 0.95 1.01 1.07 1.12 1.18 1.24 1.23 1.20 1.17 1.15 1.13 1.15 1.15 1.14 1.09 1.06 1.06 1.04 1.03 0.99 0.94 0.92 0.91 0.88 0.82 0.75 0.64 0.56 0.53 0.50
1.24 1.23 1.21 1.17 1.14 1.09 1.01 0.94 0.88 0.80 0.74 0.72 0.71 0.69 0.68 0.68 0.68 0.73 0.74 0.78 0.81 0.83 0.83 0.81 0.80 0.79 0.78 0.75 0.81 0.85 0.86 0.85 0.83 0.81 0.79 0.77 0.77 0.76 0.75 0.77 0.79 0.81 0.84 0.85 0.85 0.84 0.83 0.84 0.86 0.90 0.93 0.95 0.95 0.95 0.98 0.99 1.03 1.07 1.14 1.17 1.19 1.25 1.27 1.26 1.24 1.20 1.17 1.16 1.13 1.12 1.10 1.06 1.03 1.03 1.00 0.97 0.94 0.91 0.89 0.87 0.81 0.72 0.60 0.56 0.53
1.20 1.19 1.21 1.14 1.11 1.07 1.00 0.89 0.80 0.80 0.71 0.68 0.66 0.67 0.65 0.61 0.67 0.70 0.70 0.73 0.75 0.77 0.77 0.77 0.78 0.77 0.78 0.77 0.76 0.75 0.77 0.78 0.78 0.78 0.76 0.75 0.74 0.75 0.77 0.80 0.82 0.85 0.90 0.93 0.87 0.87 0.90 0.90 0.92 0.94 0.97 0.97 0.99 1.02 1.03 1.04 1.07 1.10 1.13 1.15 1.16 1.18 1.19 1.21 1.25 1.23 1.20 1.15 1.10 1.08 1.08 1.07 1.06 1.04 1.03 1.01 0.98 0.94 0.91 0.84 0.80 0.77 0.68 0.58 0.53
1.20 1.19 1.14 1.09 1.04 0.98 0.93 0.81 0.74 0.72 0.66 0.68 0.65 0.63 0.64 0.63 0.63 0.71 0.83 0.88 0.83 0.77 0.73 0.72 0.70 0.70 0.71 0.74 0.77 0.77 0.77 0.78 0.77 0.75 0.74 0.74 0.75 0.78 0.82 0.85 0.88 0.92 0.93 0.91 0.89 0.89 0.92 0.95 0.96 0.99 1.01 1.02 1.05 1.08 1.10 1.12 1.13 1.12 1.11 1.11 1.12 1.16 1.20 1.25 1.28 1.25 1.22 1.17 1.14 1.12 1.12 1.11 1.09 1.06 1.04 1.03 0.99 0.94 0.92 0.87 0.83 0.77 0.72 0.60 0.55
1.20 1.14 1.11 1.07 0.98 0.86 0.79 0.77 0.69 0.64 0.72 0.73 0.67 0.65 0.63 0.68 0.70 0.75 0.84 0.91 0.93 0.95 0.96 0.93 0.90 0.87 0.87 0.87 0.87 0.85 0.83 0.82 0.82 0.81 0.80 0.82 0.85 0.89 0.90 0.92 0.96 0.99 0.98 0.95 0.97 0.97 0.99 1.00 1.03 1.05 1.08 1.11 1.14 1.16 1.16 1.16 1.17 1.17 1.17 1.18 1.18 1.20 1.24 1.28 1.27 1.25 1.23 1.22 1.19 1.18 1.15 1.12 1.11 1.07 1.03 1.01 1.00 0.97 0.93 0.93 0.88 0.81 0.77 0.71 0.60
1.16 1.12 1.05 0.93 0.84 0.75 0.72 0.63 0.68 0.72 0.66 0.68 0.73 0.70 0.70 0.72 0.72 0.79 0.83 0.83 0.85 0.89 0.96 1.02 1.03 0.98 0.92 0.91 0.91 0.91 0.90 0.88 0.88 0.89 0.90 0.92 0.94 0.96 0.98 0.98 0.98 1.01 1.03 1.04 1.05 1.06 1.06 1.07 1.08 1.10 1.13 1.14 1.16 1.18 1.18 1.20 1.21 1.22 1.23 1.24 1.24 1.26 1.30 1.29 1.27 1.27 1.28 1.26 1.24 1.22 1.18 1.14 1.12 1.11 1.07 1.02 1.00 0.97 0.95 0.93 0.91 0.86 0.80 0.76 0.68
1.09 1.02 0.86 0.80 0.76 0.75 0.72 0.65 0.65 0.69 0.69 0.67 0.68 0.70 0.71 0.73 0.78 0.83 0.84 0.84 0.82 0.81 0.83 0.86 0.90 0.95 0.98 0.97 0.96 0.95 0.95 0.95 0.96 0.97 0.98 1.01 1.03 1.06 1.01 1.02 1.03 1.06 1.09 1.12 1.13 1.15 1.18 1.19 1.22 1.25 1.27 1.27 1.30 1.29 1.29 1.27 1.28 1.30 1.36 1.37 1.30 1.28 1.28 1.29 1.30 1.31 1.31 1.29 1.24 1.24 1.20 1.17 1.15 1.12 1.09 1.06 1.03 1.02 1.01 0.98 0.95 0.92 0.87 0.80 0.77
0.87 0.81 0.75 0.72 0.71 0.71 0.72 0.73 0.73 0.72 0.75 0.75 0.72 0.72 0.71 0.72 0.77 0.82 0.85 0.84 0.83 0.83 0.82 0.86 0.91 0.95 0.99 1.01 0.99 0.97 0.99 1.01 1.03 1.04 1.07 1.11 1.15 1.14 1.09 1.07 1.07 1.12 1.14 1.17 1.21 1.27 1.30 1.35 1.38 1.37 1.36 1.36 1.37 1.36 1.33 1.29 1.30 1.31 1.36 1.38 1.36 1.31 1.27 1.26 1.28 1.29 1.28 1.30 1.30 1.33 1.29 1.22 1.16 1.15 1.12 1.07 1.04 1.04 1.03 1.02 0.99 0.96 0.93 0.88 0.81
0.73 0.76 0.77 0.76 0.70 0.68 0.67 0.71 0.73 0.75 0.74 0.74 0.74 0.71 0.72 0.75 0.80 0.83 0.83 0.82 0.84 0.84 0.85 0.84 0.85 0.86 0.87 0.93 1.04 1.04 1.05 1.08 1.10 1.12 1.15 1.15 1.13 1.11 1.12 1.15 1.18 1.22 1.24 1.28 1.31 1.35 1.35 1.35 1.35 1.34 1.35 1.36 1.34 1.34 1.34 1.34 1.35 1.35 1.35 1.35 1.35 1.31 1.30 1.30 1.30 1.31 1.33 1.34 1.30 1.29 1.26 1.23 1.26 1.26 1.21 1.13 1.09 1.06 1.05 1.04 1.01 0.97 0.96 0.95 0.87
0.76 0.76 0.81 0.80 0.77 0.73 0.67 0.64 0.67 0.70 0.71 0.71 0.69 0.70 0.67 0.69 0.77 0.81 0.82 0.82 0.83 0.86 0.89 0.92 0.93 0.93 0.95 1.00 1.01 1.09 1.10 1.10 1.11 1.10 1.13 1.18 1.25 1.31 1.35 1.36 1.33 1.31 1.30 1.29 1.30 1.30 1.30 1.29 1.31 1.35 1.37 1.36 1.34 1.33 1.32 1.30 1.31 1.30 1.32 1.33 1.32 1.32 1.32 1.32 1.32 1.32 1.32 1.31 1.32 1.34 1.34 1.32 1.25 1.23 1.18 1.17 1.17 1.13 1.08 1.06 1.05 1.03 0.99 0.95 0.93
0.85 0.84 0.79 0.79 0.78 0.75 0.71 0.73 0.73 0.71 0.70 0.69 0.71 0.70 0.67 0.70 0.74 0.77 0.78 0.78 0.83 0.88 0.90 0.92 0.94 0.98 1.03 1.06 1.08 1.09 1.05 1.05 1.09 1.14 1.20 1.26 1.27 1.33 1.36 1.30 1.26 1.26 1.28 1.29 1.32 1.34 1.34 1.34 1.34 1.32 1.31 1.32 1.31 1.30 1.29 1.26 1.23 1.22 1.25 1.28 1.28 1.27 1.27 1.27 1.28 1.29 1.33 1.34 1.34 1.36 1.29 1.25 1.26 1.28 1.24 1.19 1.16 1.15 1.11 1.08 1.07 1.05 1.04 1.00 0.97
0.94 0.90 0.88 0.83 0.76 0.74 0.68 0.60 0.66 0.71 0.73 0.72 0.70 0.69 0.71 0.74 0.78 0.80 0.82 0.85 0.86 0.87 0.89 0.92 0.96 1.03 1.08 1.11 1.15 1.17 1.17 1.18 1.20 1.22 1.24 1.28 1.29 1.29 1.31 1.31 1.29 1.30 1.33 1.35 1.39 1.40 1.37 1.34 1.34 1.35 1.36 1.36 1.35 1.31 1.28 1.24 1.21 1.21 1.21 1.21 1.22 1.21 1.24 1.29 1.32 1.33 1.35 1.35 1.34 1.32 1.31 1.29 1.27 1.23 1.19 1.19 1.17 1.15 1.13 1.11 1.08 1.06 1.05 1.04 1.03
0.95 0.92 0.90 0.86 0.82 0.77 0.73 0.67 0.61 0.61 0.65 0.72 0.76 0.77 0.77 0.78 0.80 0.82 0.83 0.86 0.89 0.92 0.95 0.96 0.99 1.05 1.13 1.19 1.23 1.27 1.27 1.28 1.29 1.28 1.28 1.28 1.28 1.30 1.32 1.33 1.35 1.36 1.37 1.39 1.40 1.37 1.36 1.35 1.36 1.39 1.38 1.36 1.32 1.29 1.25 1.23 1.23 1.21 1.20 1.19 1.20 1.21 1.22 1.25 1.30 1.32 1.32 1.30 1.30 1.30 1.29 1.30 1.30 1.26 1.22 1.23 1.22 1.19 1.15 1.11 1.09 1.08 1.07 1.05 1.04
0.94 0.90 0.93 0.88 0.85 0.81 0.73 0.63 0.61 0.62 0.62 0.63 0.65 0.71 0.76 0.78 0.77 0.76 0.77 0.81 0.88 0.93 0.95 0.99 1.07 1.19 1.24 1.27 1.30 1.30 1.29 1.29 1.26 1.25 1.24 1.24 1.26 1.28 1.31 1.34 1.38 1.40 1.39 1.39 1.38 1.39 1.35 1.31 1.29 1.30 1.35 1.35 1.33 1.28 1.22 1.20 1.21 1.18 1.15 1.12 1.12 1.14 1.14 1.16 1.19 1.22 1.25 1.26 1.26 1.27 1.28 1.28 1.30 1.25 1.20 1.21 1.24 1.24 1.22 1.17 1.12 1.10 1.09 1.08 1.08
0.89 0.88 0.83 0.87 0.88 0.83 0.77 0.68 0.59 0.59 0.64 0.69 0.72 0.76 0.79 0.81 0.82 0.86 0.91 0.94 0.95 1.00 1.06 1.12 1.18 1.25 1.28 1.30 1.30 1.30 1.29 1.31 1.30 1.26 1.22 1.21 1.21 1.22 1.26 1.31 1.34 1.35 1.33 1.29 1.35 1.39 1.36 1.32 1.27 1.26 1.26 1.25 1.25 1.27 1.29 1.30 1.28 1.20 1.17 1.14 1.11 1.09 1.11 1.15 1.16 1.18 1.21 1.23 1.24 1.24 1.25 1.24 1.25 1.27 1.25 1.21 1.20 1.20 1.21 1.18 1.16 1.12 1.10 1.09 1.09
0.88 0.78 0.77 0.75 0.75 0.75 0.74 0.72 0.68 0.63 0.64 0.68 0.72 0.76 0.79 0.80 0.83 0.88 0.95 1.02 1.07 1.11 1.14 1.20 1.22 1.23 1.24 1.26 1.29 1.29 1.30 1.31 1.30 1.25 1.20 1.19 1.19 1.22 1.28 1.31 1.33 1.34 1.36 1.35 1.35 1.28 1.26 1.22 1.19 1.15 1.11 1.12 1.20 1.27 1.28 1.27 1.28 1.17 1.07 1.00 0.94 0.92 0.96 1.04 1.11 1.14 1.18 1.17 1.18 1.18 1.18 1.20 1.21 1.24 1.21 1.21 1.20 1.18 1.15 1.16 1.17 1.17 1.14 1.12 1.09
0.81 0.80 0.75 0.72 0.74 0.75 0.73 0.74 0.76 0.75 0.74 0.74 0.77 0.81 0.85 0.89 0.94 1.00 1.03 1.06 1.10 1.15 1.19 1.20 1.23 1.24 1.26 1.26 1.25 1.23 1.23 1.27 1.29 1.29 1.26 1.26 1.28 1.29 1.31 1.31 1.32 1.28 1.28 1.27 1.25 1.23 1.20 1.17 1.14 1.07 1.05 1.06 1.06 1.01 1.00 1.00 0.98 0.95 0.94 0.91 0.90 0.90 0.93 1.00 1.06 1.09 1.11 1.11 1.11 1.11 1.11 1.11 1.13 1.15 1.15 1.19 1.20 1.20 1.18 1.16 1.16 1.16 1.15 1.13 1.12
0.77 0.75 0.74 0.75 0.73 0.74 0.75 0.75 0.76 0.79 0.84 0.86 0.88 0.88 0.87 0.90 0.97 1.04 1.11 1.20 1.19 1.21 1.22 1.24 1.26 1.27 1.25 1.23 1.22 1.19 1.22 1.29 1.29 1.29 1.30 1.30 1.28 1.28 1.26 1.26 1.21 1.15 1.11 1.11 1.08 1.08 1.06 1.03 0.98 0.95 0.93 0.94 0.90 0.87 0.84 0.82 0.81 0.82 0.82 0.83 0.82 0.84 0.84 0.86 0.89 0.94 0.99 1.01 1.05 1.05 1.04 1.04 1.05 1.06 1.08 1.12 1.13 1.16 1.16 1.13 1.12 1.12 1.15 1.16 1.16
0.74 0.74 0.70 0.72 0.73 0.74 0.74 0.77 0.79 0.81 0.83 0.83 0.86 0.91 0.95 1.00 1.03 1.08 1.16 1.18 1.21 1.22 1.23 1.25 1.24 1.24 1.24 1.22 1.27 1.29 1.29 1.28 1.28 1.25 1.24 1.22 1.17 1.10 1.04 1.00 0.97 0.95 0.93 0.90 0.87 0.86 0.83 0.80 0.75 0.72 0.70 0.74 0.72 0.68 0.66 0.66 0.67 0.68 0.69 0.69 0.70 0.70 0.72 0.74 0.77 0.81 0.86 0.88 0.91 0.93 0.93 0.94 0.95 0.96 0.98 0.99 1.02 1.07 1.06 1.09 1.12 1.12 1.14 1.16 1.17
0.71 0.74 0.75 0.72 0.71 0.75 0.78 0.81 0.84 0.88 0.91 0.96 0.98 1.04 1.08 1.14 1.25 1.23 1.25 1.26 1.25 1.25 1.23 1.19 1.21 1.24 1.24 1.26 1.31 1.31 1.26 1.20 1.17 1.13 1.07 1.02 0.98 0.96 0.95 0.89 0.82 0.76 0.69 0.62 0.62 0.62 0.61 0.57 0.56 0.53 0.61 0.75 0.71 0.65 0.59 0.57 0.56 0.56 0.56 0.56 0.57 0.59 0.61 0.62 0.63 0.67 0.73 0.76 0.77 0.78 0.80 0.82 0.83 0.84 0.85 0.85 0.89 0.95 1.01 1.04 1.08 1.10 1.11 1.13 1.16
0.79 0.80 0.79 0.80 0.81 0.82 0.85 0.87 0.89 0.94 0.99 1.01 1.04 1.12 1.16 1.16 1.22 1.27 1.28 1.28 1.28 1.25 1.25 1.25 1.26 1.27 1.25 1.23 1.21 1.18 1.13 1.09 1.08 1.05 0.99 0.91 0.83 0.80 0.77 0.69 0.62 0.55 0.50 0.54 0.54 0.52 0.51 0.49 0.48 0.51 0.66 0.69 0.68 0.65 0.60 0.56 0.53 0.51 0.50 0.49 0.47 0.46 0.44 0.43 0.43 0.44 0.45 0.48 0.52 0.57 0.60 0.62 0.63 0.65 0.68 0.71 0.75 0.79 0.82 0.86 0.93 0.98 1.02 1.06 1.08
0.82 0.85 0.87 0.88 0.91 0.96 1.00 1.02 1.05 1.06 1.10 1.17 1.22 1.18 1.20 1.26 1.29 1.34 1.32 1.34 1.33 1.26 1.28 1.30 1.27 1.22 1.16 1.13 1.11 1.07 1.06 1.09 1.07 1.01 0.89 0.76 0.71 0.71 0.65 0.59 0.54 0.51 0.52 0.51 0.50 0.49 0.48 0.48 0.50 0.52 0.61 0.61 0.59 0.56 0.53 0.50 0.48 0.46 0.44 0.42 0.41 0.39 0.36 0.35 0.33 0.32 0.32 0.31 0.30 0.32 0.36 0.41 0.45 0.46 0.48 0.51 0.55 0.58 0.64 0.72 0.80 0.87 0.93 0.95 0.97
Wind_Speed
12 11 11 11 9 9 9 8 8 8 8 8 8 8 8 8 8 7 8 7 7 7 7 7 7 7 7 7 8 8 8 9 9 10 11 11 11 10 11 11 10 10 10 10 10 11 11 11 12 12 11 11 11 11 11 11 11 12 11 11 12 11 12 13 13 14 15 15 16 16 16 16 16 16 16 16 16 16 17 17 16 16 16 16 16
12 11 11 11 9 8 8 8 8 8 7 7 7 7 8 8 8 8 7 7 7 7 6 6 7 7 6 7 8 8 8 9 9 10 11 11 11 10 11 11 10 9 9 9 10 11 11 11 12 12 11 11 11 11 12 12 11 12 12 12 13 13 13 13 13 14 15 16 16 17 16 16 16 16 16 16 15 16 16 17 17 17 17 16 17
12 12 11 10 8 8 8 8 8 7 7 7 7 7 7 8 8 8 7 7 7 6 6 7 7 7 7 7 8 8 9 9 10 10 10 10 10 10 10 10 10 9 8 8 9 10 11 11 12 12 12 11 12 12 12 12 12 12 13 13 14 14 13 14 14 15 15 16 17 17 16 16 16 16 16 16 16 16 17 17 17 17 17 17 17
11 11 10 9 8 8 8 8 7 7 7 8 8 7 7 7 7 7 7 7 6 6 7 7 7 7 6 7 7 8 9 9 10 10 9 9 9 10 10 10 10 10 9 9 9 10 11 11 11 13 12 11 11 12 12 13 12 12 13 13 13 14 14 15 15 15 15 16 17 17 16 16 16 16 17 17 17 17 17 17 17 17 17 17 17
10 10 9 9 9 8 8 7 7 6 7 8 7 7 7 7 7 7 7 7 6 6 6 6 7 7 7 7 7 8 8 9 9 9 9 9 9 10 10 10 10 10 10 9 9 10 10 10 11 13 13 12 11 11 12 12 12 12 13 13 13 13 14 15 15 15 15 16 17 17 16 16 16 16 16 17 17 17 16 17 17 17 17 17 17
9 9 8 8 8 8 7 7 6 7 7 7 7 7 7 7 7 7 7 6 6 6 6 7 7 7 8 7 7 7 8 8 8 8 8 8 9 10 10 10 10 11 10 10 10 10 10 10 11 13 13 12 11 11 11 12 12 12 13 13 13 13 14 15 15 15 16 16 16 17 16 16 16 15 15 16 16 16 16 16 16 16 16 17 17
9 8 7 7 7 7 7 7 6 7 7 7 7 7 7 7 7 7 6 6 6 6 7 8 8 7 7 7 7 8 8 8 7 6 7 8 9 9 9 9 10 10 10 10 10 10 9 9 10 12 13 12 11 11 11 11 11 12 13 13 13 13 14 14 14 15 16 15 15 15 15 15 15 14 15 15 15 15 16 16 16 16 16 17 17
9 8 8 8 7 7 7 6 6 6 6 6 7 8 7 7 6 6 6 7 7 7 7 7 7 6 6 7 7 8 8 7 6 6 7 8 9 9 9 9 10 10 10 10 10 9 8 9 10 11 12 12 12 12 12 11 11 12 12 13 13 13 13 13 13 15 15 14 14 14 14 14 14 14 15 14 14 15 16 16 16 16 16 17 16
8 8 8 8 7 7 6 5 6 6 6 7 7 8 7 7 7 6 6 7 8 7 7 7 7 6 6 6 7 7 6 6 6 6 7 8 9 9 9 9 9 9 9 10 10 9 8 9 10 11 11 12 12 12 12 12 12 12 12 12 13 13 13 13 13 14 13 13 14 13 13 13 13 14 15 14 15 16 16 16 16 16 17 17 16
8 8 8 7 7 6 5 5 5 6 7 7 8 8 7 7 7 6 7 8 7 7 7 7 7 7 6 7 7 7 6 5 5 6 8 9 9 9 9 9 9 9 10 10 10 10 10 10 10 10 11 11 12 12 12 12 12 13 12 12 13 12 12 13 13 13 13 13 13 13 13 13 14 15 15 15 16 16 16 16 16 17 17 17 16
7 7 7 7 6 5 5 5 6 6 7 7 7 7 7 7 7 6 7 8 7 7 7 7 7 7 7 7 7 6 5 5 5 7 8 9 9 9 9 9 9 10 10 10 10 10 10 10 10 9 10 11 11 12 12 12 13 13 12 12 12 12 12 12 13 13 13 13 13 13 13 14 15 15 16 16 17 17 17 17 17 17 17 17 17
7 7 7 6 6 5 5 5 6 6 7 7 7 7 7 7 7 7 7 7 7 7 7 7 7 7 7 7 6 5 5 5 6 7 8 8 9 9 9 9 9 9 10 10 10 10 10 11 10 9 10 11 11 12 12 12 13 13 13 12 13 13 12 12 12 12 12 12 13 13 14 14 15 15 16 16 17 17 17 17 17 17 18 18 19
6 6 6 6 5 5 5 5 5 6 6 7 7 7 7 7 7 7 7 7 7 7 7 7 7 7 7 7 6 5 5 6 6 7 8 8 9 9 9 9 9 9 9 10 10 9 9 10 10 9 9 10 11 12 12 12 13 13 13 13 13 13 12 12 12 11 10 12 13 14 14 14 15 15 16 16 17 17 17 17 17 17 18 19 20
5 5 5 5 5 5 5 5 6 6 6 6 7 7 7 7 7 7 7 7 7 7 7 7 7 6 6 7 6 6 5 6 6 7 8 8 9 9 9 9 9 9 10 10 9 9 9 10 9 10 10 10 11 11 12 12 13 13 13 12 13 14 12 11 12 11 11 13 14 15 15 15 15 15 16 16 16 17 17 17 17 18 20 20 20
4 5 5 5 5 5 5 6 6 6 6 6 6 6 7 7 7 7 7 7 7 7 7 7 7 7 6 6 6 6 6 6 7 7 8 8 9 9 9 9 9 9 9 9 9 9 10 9 9 10 10 11 11 11 11 12 12 13 13 12 13 14 13 12 12 12 12 14 15 15 15 15 16 16 17 17 17 17 18 18 18 19 20 21 20
4 5 5 5 5 5 5 5 5 6 6 6 6 6 6 6 7 7 6 6 7 7 7 7 6 7 6 6 6 6 6 6 7 7 8 8 9 9 9 9 9 9 9 9 9 9 10 9 9 10 10 11 11 11 11 12 12 13 13 13 14 14 14 14 13 12 13 15 15 15 16 16 17 18 18 18 18 18 19 19 19 20 21 21 20
4 5 5 5 5 5 5 5 5 6 6 6 6 6 6 6 6 6 6 7 7 7 7 7 6 6 6 6 6 6 6 7 7 7 8 8 9 9 9 9 9 9 9 9 9 9 10 9 9 10 11 11 11 11 11 12 12 13 13 14 14 14 14 15 14 13 14 16 16 16 17 17 18 19 19 18 18 18 19 20 20 21 21 21 20
4 4 4 4 4 4 4 4 4 5 6 6 6 6 6 6 6 6 7 7 8 7 7 7 6 6 6 6 6 6 6 7 7 8 8 9 9 9 9 9 9 9 10 10 10 10 10 10 10 11 11 11 11 11 12 12 13 13 13 14 15 15 15 15 15 15 16 17 17 17 18 18 19 20 19 18 17 17 18 20 21 21 21 21 21
3 3 3 4 3 3 4 4 4 5 6 6 6 6 5 6 6 7 7 7 8 8 7 7 7 7 7 6 6 6 7 7 7 8 9 9 9 9 9 9 10 10 10 10 10 10 11 11 11 11 11 11 11 11 12 12 13 13 14 14 15 15 15 15 16 16 17 18 18 18 18 18 19 19 19 18 17 18 18 20 21 21 22 22 21
3 3 3 2 2 3 3 4 4 5 5 5 5 6 5 6 6 7 7 7 7 7 7 7 7 7 6 6 6 6 7 7 8 8 9 9 9 9 9 9 10 10 10 10 10 10 11 11 11 12 11 11 11 12 13 13 13 14 14 14 15 15 15 16 16 17 18 18 18 18 18 18 19 19 19 18 17 18 18 19 21 22 22 23 22
3 3 2 1 2 2 3 3 4 5 5 5 5 6 6 6 7 7 7 7 8 8 8 7 8 7 7 7 7 7 8 8 8 9 9 9 9 9 9 10 10 10 10 10 10 11 12 11 11 11 11 11 12 13 14 14 14 14 14 15 15 15 16 16 17 18 18 18 18 18 18 19 19 19 19 18 17 17 19 21 23 23 23 23 22
3 3 2 1 2 2 2 3 4 5 5 5 6 6 6 7 7 7 8 8 8 9 8 8 8 8 8 8 8 8 8 9 9 9 9 9 9 9 10 10 10 10 10 11 11 11 12 12 12 12 12 13 14 14 15 15 15 15 16 16 16 16 16 16 17 18 18 18 18 18 18 19 19 19 19 19 18 19 21 23 24 24 23 23 22
4 4 3 2 2 2 2 3 4 5 6 6 6 6 7 7 7 7 8 8 9 9 9 9 9 9 9 8 9 9 9 9 10 10 10 9 9 9 10 11 11 11 11 12 12 12 13 13 14 14 14 14 15 15 16 16 16 17 17 17 17 17 17 17 18 18 18 18 18 18 18 18 18 19 19 19 20 21 23 23 23 23 23 23 22
4 4 4 3 3 3 3 4 5 6 6 6 6 6 7 7 7 7 8 8 9 9 9 9 9 9 9 9 9 9 9 10 10 10 10 10 10 10 11 11 12 12 12 13 13 13 14 15 15 15 15 16 17 17 18 18 18 18 18 18 18 18 18 18 18 18 18 18 18 18 18 18 18 19 19 20 21 22 23 23 22 22 23 24 23
4 4 4 4 4 4 4 5 5 6 6 7 7 7 7 7 7 8 8 9 9 9 9 9 9 9 9 9 9 9 10 10 10 11 11 11 11 11 12 12 12 12 13 13 14 14 15 16 17 17 17 18 18 19 19 19 19 19 19 19 19 19 18 18 18 18 18 18 18 18 18 18 18 19 19 20 21 23 23 22 21 22 23 24 23
4 4 4 4 5 5 5 5 6 7 7 7 7 7 7 7 7 8 8 9 9 9 9 8 8 8 9 9 9 10 10 10 10 11 11 11 11 12 12 13 13 13 13 14 15 16 17 17 18 18 18 19 19 19 19 20 20 20 20 20 19 19 19 19 18 18 18 18 18 18 18 18 19 19 19 20 21 22 23 21 20 21 23 23 22
5 4 4 5 5 6 6 6 7 7 7 7 7 7 7 7 7 8 8 8 8 8 8 8 8 9 9 9 10 10 10 10 11 11 11 11 11 12 12 13 14 14 15 15 16 17 18 18 18 19 19 20 20 20 21 21 21 20 20 19 19 19 19 19 19 18 18 18 18 18 18 19 19 19 19 20 20 21 21 20 19 20 21 22 21
5 5 4 4 5 5 6 7 7 8 7 7 7 7 7 7 7 7 8 8 8 8 8 8 8 9 9 9 10 10 10 10 11 11 11 11 12 12 13 14 15 15 16 17 17 18 18 19 19 20 20 21 21 21 21 21 20 20 20 20 20 20 20 19 19 19 19 19 19 19 19 19 19 19 19 19 19 20 20 20 19 19 20 20 19
5 5 4 4 4 5 6 7 8 8 7 7 7 7 7 7 7 7 7 7 8 8 8 8 8 9 9 10 10 10 10 10 10 11 12 12 13 14 15 16 17 17 18 18 19 19 20 20 20 20 21 21 21 21 21 20 20 20 20 20 20 20 20 19 19 19 19 19 19 19 19 19 19 19 19 18 18 19 19 19 19 19 19 18 17
5 4 4 4 5 5 6 8 8 7 6 6 6 7 8 8 8 7 7 7 7 7 8 8 9 9 9 10 10 10 11 11 11 13 14 15 16 16 17 18 18 18 19 19 19 19 20 20 20 21 21 21 21 21 21 20 20 20 20 20 20 20 20 20 19 20 19 19 19 19 19 19 19 19 18 18 19 19 18 18 18 18 17 16 15
4 4 4 5 5 6 7 8 7 5 5 6 6 7 7 8 8 8 8 8 8 8 9 9 10 10 11 11 11 12 12 13 14 15 16 17 17 18 18 18 18 18 19 19 19 20 20 20 21 21 21 21 21 21 21 21 21 21 21 20 20 20 21 21 20 20 20 19 19 19 19 19 19 19 18 18 18 18 17 17 18 17 16 15 14
5 4 5 6 7 7 8 7 6 5 5 6 7 7 8 8 8 8 8 9 9 10 10 10 11 11 11 12 12 13 14 15 16 16 17 17 18 18 18 18 18 18 19 19 20 20 21 21 21 22 22 22 22 22 22 21 21 21 21 21 21 21 21 21 20 20 21 21 21 20 19 19 19 18 18 17 17 17 17 17 17 16 15 14 14
5 5 6 7 7 8 7 7 6 6 7 7 7 8 8 8 8 8 8 8 9 9 10 10 11 11 12 12 12 13 14 15 16 17 17 18 18 18 18 18 18 19 19 20 21 21 22 22 22 23 23 23 23 23 23 22 22 23 23 22 22 22 21 21 21 22 22 22 21 20 20 19 19 19 18 17 17 17 17 17 16 16 15 15 13
5 6 7 7 7 7 7 7 7 7 8 8 7 8 8 8 8 8 8 8 8 9 9 10 10 11 12 13 13 14 15 15 16 17 17 18 18 18 18 19 19 19 20 21 22 22 23 23 24 24 24 24 24 24 24 24 24 24 24 24 24 23 22 22 23 23 23 22 22 21 21 20 20 19 19 18 17 17 17 16 16 15 15 15 13
7 7 7 7 7 7 7 8 8 8 8 8 8 8 8 8 8 8 8 9 9 9 10 10 11 12 13 13 14 14 15 16 16 17 17 18 18 18 19 20 21 21 21 22 23 23 24 25 25 25 25 25 25 26 25 25 26 26 26 26 25 24 24 24 25 24 23 23 23 22 22 21 20 20 19 19 18 17 16 16 15 15 15 14 13
7 7 7 7 7 7 7 8 8 9 9 9 9 9 9 9 9 9 9 9 10 10 11 11 12 12 13 14 15 15 16 17 17 17 18 18 18 18 20 21 22 23 23 23 24 24 25 26 26 26 27 27 27 27 27 27 27 27 27 27 27 26 26 26 26 26 25 24 24 23 22 22 21 20 20 20 19 18 16 16 15 15 15 14 13
7 7 7 7 8 8 8 8 9 9 9 9 9 9 9 9 9 9 10 10 11 11 11 12 13 13 13 14 15 16 17 17 18 18 18 18 18 20 22 23 23 24 24 25 26 26 27 27 27 27 27 27 27 27 27 28 28 28 28 28 28 28 28 27 27 27 26 25 24 23 23 22 22 21 21 20 20 19 18 16 16 15 16 15 14
7 7 7 7 8 8 9 9 9 9 9 9 9 9 9 9 10 10 11 11 12 12 13 13 13 14 14 15 15 16 17 17 17 18 18 19 19 21 22 23 24 25 26 27 27 27 27 27 27 26 26 27 27 27 28 28 28 28 28 28 27 27 26 26 26 26 26 25 24 23 23 23 23 22 22 21 20 19 18 17 17 16 16 15 14
7 7 7 7 7 8 8 9 9 9 9 10 10 10 10 10 10 11 11 12 13 13 13 14 14 14 15 15 16 16 17 17 18 18 19 19 20 21 23 24 26 27 27 27 26 26 26 26 26 26 26 27 27 27 28 28 28 28 27 26 26 25 25 25 25 25 25 25 25 24 24 24 24 23 23 22 21 20 19 19 18 17 17 16 15
7 8 8 8 8 8 8 9 9 9 10 10 10 10 10 11 11 12 12 13 14 14 14 14 15 15 15 16 16 17 18 19 19 19 20 21 22 24 25 27 28 27 26 26 26 25 26 27 27 27 27 27 27 28 28 28 28 28 27 26 25 25 25 25 25 25 25 24 24 24 24 24 24 23 23 22 21 20 20 20 19 19 18 17 16
7 8 8 8 9 9 9 9 10 10 10 10 11 11 11 12 12 13 13 14 14 15 15 15 15 16 16 17 18 19 19 19 20 21 22 24 26 27 28 28 27 26 25 25 26 26 27 28 28 29 29 29 28 29 29 29 28 28 27 27 26 26 25 25 25 25 25 25 25 25 24 24 24 23 23 22 22 23 22 22 21 20 19 18 17
8 9 8 9 9 9 9 10 10 10 11 11 11 11 12 12 13 13 14 14 14 15 15 16 16 17 17 18 18 18 19 20 21 23 24 25 26 27 27 27 25 24 25 26 27 28 29 29 29 30 30 29 29 29 29 28 28 28 28 28 27 27 26 26 26 26 26 26 26 25 25 24 24 23 23 23 23 23 23 23 22 21 20 19 18
9 9 9 9 9 10 10 10 10 11 11 11 11 12 12 13 13 13 14 14 15 15 16 16 17 17 17 17 18 19 21 22 23 24 25 26 26 26 25 25 24 24 26 28 29 29 29 29 30 30 30 30 30 30 30 29 28 28 28 28 28 28 27 27 27 27 27 26 26 25 25 25 24 24 24 24 24 23 23 23 22 21 20 19 19
9 9 10 10 9 9 10 10 10 11 11 11 12 12 12 13 14 14 14 14 15 16 16 17 17 17 18 19 21 22 23 23 24 25 26 27 26 26 26 25 26 27 29 30 30 30 30 30 30 31 31 31 31 31 29 28 28 28 28 28 27 28 28 27 27 27 27 26 26 26 26 25 25 24 25 25 24 24 24 24 23 22 21 20 19
9 10 10 10 10 10 10 11 11 11 11 11 12 12 13 13 14 14 14 15 16 16 16 16 17 18 20 22 23 23 24 24 25 26 27 27 27 27 27 28 28 29 30 30 30 30 31 31 31 32 32 32 31 30 29 28 28 28 28 29 28 28 28 28 27 27 27 26 26 26 26 25 25 25 25 25 25 25 25 25 25 24 24 23 22
10 10 11 11 11 10 11 11 11 11 11 12 12 13 13 13 14 14 15 15 16 16 16 17 19 20 22 22 23 24 24 25 26 27 27 27 28 28 28 29 30 30 31 31 31 31 31 32 32 32 32 32 31 31 30 30 30 29 29 29 29 29 29 29 28 28 28 27 27 27 26 26 26 26 26 26 26 27 27 26 26 26 26 26 25
11 11 11 11 11 11 11 11 11 11 12 12 13 13 14 14 15 15 15 15 15 16 18 19 20 22 23 23 23 24 25 25 26 27 27 28 28 29 29 30 31 31 32 32 32 32 33 33 33 33 33 33 32 31 31 31 31 30 30 30 30 30 30 30 29 29 29 28 28 28 27 27 27 27 27 27 26 27 27 27 28 28 28 28 27
11 11 11 11 11 11 11 11 11 12 12 13 14 15 15 15 15 15 15 15 17 19 20 20 21 22 22 23 23 24 25 26 27 28 28 28 29 30 31 31 32 33 33 33 34 34 33 33 34 34 33 33 32 31 31 31 31 31 30 30 30 30 30 30 30 30 30 30 30 29 29 29 28 28 28 27 27 27 27 27 28 28 28 28 29
11 11 11 11 11 12 12 12 12 12 13 14 15 15 15 14 14 15 16 17 19 20 21 21 21 22 23 23 24 25 27 27 28 29 29 30 31 31 32 33 34 34 35 35 34 34 33 33 33 33 32 31 30 30 31 31 31 31 31 31 31 31 31 31 31 31 31 31 31 31 31 30 30 29 29 29 28 28 28 27 27 27 28 28 29
11 11 12 12 12 12 12 12 13 14 14 14 14 14 14 15 16 17 18 18 19 20 21 21 22 23 24 25 26 27 28 29 29 30 30 31 32 33 34 34 35 35 35 34 34 33 33 33 33 32 31 31 30 30 30 30 31 31 31 31 32 32 32 32 31 32 32 31 31 31 31 30 30 30 30 29 29 29 29 29 29 28 28 28 28
11 12 12 12 12 13 13 13 14 14 14 14 14 15 16 16 17 18 19 19 19 20 21 22 23 25 26 27 29 29 30 30 31 31 32 33 34 34 35 35 35 35 34 34 34 34 34 33 32 31 31 31 30 30 30 30 30 30 31 32 32 32 32 31 31 31 31 31 30 30 29 29 29 29 29 29 29 29 29 30 30 29 29 29 29
Wind_Direction
252 257 261 262 261 265 273 278 280 283 287 291 292 294 297 298 300 305 308 309 306 295 286 287 289 290 297 305 309 312 316 321 324 325 326 325 322 326 331 333 333 334 338 339 339 339 339 339 339 337 335 333 329 326 325 324 322 320 321 320 318 317 318 316 310 307 309 309 308 307 306 308 308 305 303 302 303 305 302 299 297 296 293 291 287
250 254 256 257 256 260 269 276 280 283 288 292 293 296 297 297 300 305 307 307 305 298 288 289 291 290 295 304 307 311 314 320 324 326 328 328 326 328 329 330 331 330 332 336 338 340 339 339 340 338 336 334 331 327 327 328 325 322 322 321 320 321 321 317 313 311 311 311 309 308 308 308 307 306 306 303 304 306 304 301 299 297 295 293 289
248 249 252 253 253 258 269 280 285 284 288 291 293 294 293 295 300 303 305 306 304 300 291 287 290 291 295 301 307 310 311 316 320 323 328 330 329 332 333 331 329 325 327 333 339 342 340 337 339 340 338 336 332 329 330 331 329 325 324 323 323 323 321 319 318 315 313 312 310 309 309 308 306 308 309 307 305 305 304 302 300 297 296 295 291
243 243 248 247 249 260 271 279 281 281 285 288 291 291 290 295 300 300 303 304 302 299 291 286 287 292 296 300 304 309 311 315 317 318 325 332 332 333 333 331 329 330 333 339 343 343 339 336 338 341 340 338 334 331 332 333 330 328 326 324 324 322 320 320 319 316 314 313 311 310 309 309 309 309 309 308 307 304 303 302 301 298 296 295 292
238 235 235 235 245 262 268 269 273 276 281 286 287 288 291 295 298 298 300 301 301 299 296 291 289 290 293 296 301 307 311 315 319 322 327 330 331 333 333 332 331 334 337 342 347 346 342 338 339 342 343 340 337 335 336 337 335 331 330 328 327 324 322 322 320 317 317 314 312 311 311 312 312 310 310 310 309 306 304 302 301 298 296 295 292
226 223 227 233 247 261 262 263 269 273 278 283 285 287 293 296 296 297 299 297 297 299 298 295 291 290 292 296 303 308 310 313 318 323 328 331 332 334 335 334 334 336 338 341 344 345 345 342 340 345 347 345 342 340 339 340 340 339 337 333 331 328 326 327 324 321 320 317 314 316 316 315 314 313 315 314 311 309 307 304 302 300 298 296 293
219 222 232 241 251 258 258 260 265 272 278 281 284 288 293 295 294 297 296 289 288 293 294 292 289 289 293 298 306 309 309 313 316 320 329 334 334 333 334 336 338 340 340 340 341 342 344 343 342 347 352 350 348 345 343 342 342 343 342 338 334 331 329 330 328 327 327 324 321 323 322 320 320 320 320 318 315 313 312 309 306 304 302 299 294
221 229 237 247 256 260 260 259 262 272 281 282 285 290 293 291 291 294 293 288 287 289 291 291 289 290 293 297 305 308 307 309 313 323 332 335 334 332 333 333 336 340 341 339 340 342 344 344 343 346 350 352 352 350 347 344 342 342 343 343 344 341 338 336 334 333 334 331 328 328 328 327 327 326 324 322 320 318 315 313 309 307 305 301 296
226 234 241 253 262 262 260 259 263 275 282 282 286 291 290 287 287 290 290 290 290 290 292 292 291 291 292 296 302 305 304 303 309 321 329 330 331 332 331 329 330 335 337 337 339 343 347 345 342 343 347 351 353 353 351 349 347 346 346 347 349 348 346 346 343 339 337 335 332 332 332 331 331 331 329 327 324 321 318 317 313 310 308 303 298
229 234 247 260 263 261 260 263 269 277 281 280 286 290 286 283 286 288 287 288 289 291 292 291 288 288 290 297 303 302 296 297 308 320 326 328 328 330 330 328 327 331 333 334 338 342 344 341 337 339 345 347 348 350 351 349 345 344 342 343 344 344 344 346 348 346 343 339 336 334 332 331 330 330 328 326 325 322 320 319 315 312 311 307 300
234 241 255 262 259 261 266 267 270 278 281 279 283 286 281 280 288 290 286 287 289 288 288 287 288 292 296 301 308 307 299 299 310 318 325 327 327 328 329 326 325 329 332 334 337 338 338 337 335 337 341 342 342 344 345 343 340 338 338 338 337 336 336 340 345 347 347 345 342 338 334 331 329 328 327 325 325 323 320 317 314 312 310 307 301
242 246 255 256 256 264 267 266 270 278 283 281 281 283 281 280 286 289 285 284 287 286 284 284 289 295 299 301 306 308 303 304 311 316 322 325 325 326 328 325 322 326 331 334 337 337 335 335 335 334 336 339 341 341 340 340 341 341 340 339 335 331 329 333 339 342 344 345 344 340 336 332 330 329 328 327 327 325 322 319 316 313 309 305 300
240 243 250 253 257 265 265 264 272 280 285 284 280 279 281 281 282 285 284 280 281 282 281 284 289 291 294 296 297 298 298 300 307 314 319 322 323 324 326 325 322 324 328 331 333 334 334 335 336 336 336 338 340 340 338 338 341 341 339 340 340 334 326 326 333 335 336 340 340 337 335 333 332 330 330 330 331 329 327 323 320 317 313 308 302
239 243 249 253 256 262 263 265 276 285 288 287 280 274 278 281 279 281 281 278 278 279 281 285 289 290 291 291 290 292 293 293 300 311 317 319 320 322 323 322 321 323 326 330 331 331 332 334 335 337 338 336 336 337 337 337 339 340 339 340 342 340 333 327 329 330 333 336 337 335 333 332 331 330 330 331 331 331 330 326 323 321 317 312 307
243 245 250 255 255 259 264 268 279 288 288 285 279 274 277 279 276 275 276 276 277 279 282 284 284 287 288 284 285 289 288 287 296 306 313 315 317 319 321 320 321 323 326 329 329 329 330 331 331 333 334 332 331 331 333 335 336 337 338 338 338 340 339 334 330 330 332 333 334 334 332 330 329 328 328 328 328 329 330 327 324 323 319 315 312
247 251 255 255 255 261 267 273 280 285 286 283 277 275 278 276 275 276 273 272 274 274 280 283 281 283 286 281 281 285 283 284 294 304 310 313 316 318 319 320 320 322 324 326 325 327 330 328 326 329 331 330 329 328 328 332 334 334 334 334 334 336 338 337 332 330 330 330 330 330 329 328 327 324 323 324 324 326 327 326 326 324 321 318 317
252 254 255 254 258 265 269 275 282 283 284 283 277 276 276 273 274 277 273 273 276 274 277 282 279 279 281 277 277 282 284 286 293 303 308 311 314 318 318 318 318 318 321 323 321 323 326 324 321 323 326 327 328 328 328 329 331 331 331 331 331 332 334 335 335 333 330 328 327 326 325 326 326 322 320 319 320 323 325 324 324 323 322 320 318
250 249 247 249 257 266 267 273 284 287 284 283 279 276 275 272 272 274 273 277 282 280 281 284 280 277 277 273 273 279 284 285 290 299 306 308 312 316 316 316 316 316 317 319 317 318 319 316 314 317 320 322 324 325 325 326 327 328 328 329 329 329 330 332 333 333 330 327 327 325 325 326 325 323 321 319 319 321 322 323 323 322 322 321 318
237 235 235 238 248 261 266 272 287 294 289 286 283 278 275 272 270 273 276 280 283 283 283 283 279 276 273 270 272 278 283 286 289 296 303 306 310 315 316 315 314 314 315 316 316 316 314 311 310 312 315 317 319 320 321 322 324 325 325 325 326 326 327 328 329 329 329 329 328 327 327 328 327 326 324 322 321 322 322 323 324 324 323 321 318
230 227 224 231 249 264 273 282 296 303 298 291 286 281 278 274 271 274 279 280 281 282 280 280 281 279 273 268 272 279 286 290 291 294 300 304 308 313 316 315 314 314 315 316 316 315 314 313 313 311 311 313 315 316 317 318 320 321 321 321 321 323 325 326 325 326 328 328 328 327 327 328 328 328 327 325 326 328 327 326 326 325 323 321 317
227 222 215 240 267 274 288 299 306 311 307 297 288 284 282 278 274 274 277 277 278 279 279 281 283 281 274 269 273 279 283 288 291 293 298 301 305 310 315 315 314 313 314 315 314 314 315 319 320 317 313 312 313 314 314 314 317 319 318 316 317 319 322 322 323 324 325 326 327 327 327 327 329 330 330 330 332 333 331 328 326 325 323 321 317
218 215 215 246 270 281 303 312 316 318 313 302 292 287 284 279 276 276 276 276 278 278 279 282 283 281 275 271 273 278 281 286 292 295 297 299 302 306 311 313 312 311 312 312 313 313 314 317 318 316 313 311 311 311 311 312 314 315 314 314 314 315 317 318 319 321 323 324 326 326 326 327 329 329 330 332 334 334 332 330 329 328 327 324 318
211 214 222 240 261 286 306 313 319 321 316 306 296 288 284 281 278 277 277 278 279 279 279 281 281 280 277 273 273 278 282 287 293 296 298 299 300 302 306 309 310 310 309 309 310 311 312 312 313 313 311 309 309 309 309 310 311 311 311 311 312 313 314 314 314 316 319 321 322 322 323 325 327 327 329 331 332 333 334 333 331 330 330 327 322
208 215 230 245 261 283 301 311 317 319 315 310 302 293 287 283 279 278 279 279 279 280 280 280 279 278 277 276 277 280 285 289 294 297 299 298 298 300 303 306 308 308 308 308 308 309 310 309 310 310 309 308 308 307 307 308 308 308 308 307 309 311 312 311 311 312 314 316 317 319 320 322 325 326 327 329 330 332 335 334 332 332 332 332 328
212 220 235 247 258 276 293 304 311 315 313 310 305 296 289 284 280 279 279 278 279 279 279 280 279 278 278 278 280 282 286 290 294 298 298 297 297 299 301 304 306 307 308 308 308 308 308 308 308 308 308 307 307 307 307 307 306 306 306 306 307 308 309 308 309 309 311 312 314 316 317 320 322 324 326 328 330 332 334 333 333 335 337 337 335
219 233 247 256 264 276 286 294 304 312 312 308 303 298 292 287 283 281 279 277 278 279 280 281 280 279 279 281 283 285 288 291 296 298 299 299 299 299 301 303 305 306 306 306 307 307 307 307 308 308 308 308 308 308 308 307 305 305 305 305 306 306 306 306 307 307 308 309 311 313 315 317 320 322 324 326 329 332 333 332 334 338 342 344 343
232 247 257 265 275 281 285 291 301 309 310 306 303 300 295 291 287 283 281 280 278 279 281 280 278 280 282 283 285 287 290 294 297 300 301 303 303 304 305 306 306 306 306 306 306 307 307 307 307 308 308 307 307 307 307 306 305 305 305 306 306 305 305 305 305 306 306 307 308 310 312 315 317 319 322 324 327 331 334 334 336 340 345 348 348
242 248 255 269 285 289 287 289 296 302 304 303 302 300 296 293 289 284 282 282 281 281 281 279 278 279 283 285 287 290 292 296 299 301 303 305 306 307 308 308 307 307 307 308 308 307 307 307 307 307 307 307 307 307 307 306 305 304 304 304 304 304 304 303 303 304 304 305 306 307 308 311 313 316 320 322 325 329 334 336 338 340 346 350 351
244 246 252 268 288 294 287 287 293 298 295 293 298 300 296 293 292 289 286 285 284 282 281 280 280 282 284 288 291 293 296 298 300 302 302 303 304 305 306 307 307 306 307 307 307 306 306 306 306 307 307 307 306 306 306 305 304 303 302 302 302 302 302 302 301 302 303 303 304 304 305 307 309 312 317 320 321 325 330 334 336 339 343 347 349
244 245 250 263 281 290 288 285 289 294 289 285 294 301 298 294 292 291 291 292 291 288 285 282 282 284 286 289 292 294 296 297 299 301 302 303 304 304 305 305 305 306 307 307 306 306 306 306 306 307 307 306 306 305 305 304 303 303 302 302 301 300 300 300 299 300 302 302 302 302 303 304 306 307 311 315 318 321 325 329 333 335 338 343 346
243 247 253 261 271 284 290 287 284 289 294 295 298 300 299 297 294 290 286 285 286 286 285 284 285 287 288 289 290 292 294 296 298 300 301 303 304 304 305 305 306 306 307 307 306 306 306 306 307 307 307 306 306 305 305 304 303 302 303 303 302 301 300 298 297 299 301 301 301 302 302 302 303 305 307 310 315 318 320 324 327 329 332 338 342
242 246 254 263 271 280 289 293 291 292 299 303 303 301 301 301 298 293 289 285 284 284 284 285 286 288 288 289 289 291 293 296 298 299 301 303 303 304 306 307 306 307 307 307 307 307 307 307 307 307 306 306 305 305 304 303 302 302 302 302 302 302 301 299 297 298 299 300 299 299 300 301 302 303 304 307 311 315 316 318 322 326 329 332 335
244 250 259 270 279 284 290 298 303 299 296 299 302 302 302 301 299 296 293 291 291 290 290 290 290 290 290 290 290 292 294 296 298 300 302 302 303 304 306 306 306 305 305 305 305 306 306 306 306 306 305 305 304 304 303 302 301 301 300 300 300 301 300 300 298 297 296 297 297 296 297 298 299 301 302 303 306 310 312 313 316 321 324 326 329
250 259 266 272 280 288 292 294 297 295 293 296 300 300 298 297 298 299 299 299 298 297 296 295 294 293 294 295 295 296 297 299 300 302 302 302 303 305 306 306 304 303 303 304 303 304 304 304 304 304 304 303 303 302 301 301 301 300 298 298 299 299 298 299 298 297 295 295 295 293 293 294 295 296 299 300 301 304 307 309 312 315 318 321 325
260 268 273 276 283 290 291 288 289 292 293 295 298 299 298 296 295 295 296 298 298 298 298 298 297 296 297 299 299 299 300 301 302 302 302 302 304 305 305 305 305 304 304 304 304 304 304 304 303 303 303 301 301 300 299 299 300 299 298 297 297 296 296 297 297 296 293 292 292 290 289 289 291 292 294 296 297 298 301 304 307 309 311 315 320
271 278 282 283 285 289 288 285 286 289 291 292 293 295 295 295 293 292 292 294 295 296 298 300 300 299 299 299 300 300 300 301 302 303 303 304 305 305 305 305 305 305 305 306 306 305 305 304 303 303 303 303 302 302 301 300 300 300 300 299 296 294 294 294 294 294 292 290 289 288 286 285 287 289 290 292 293 294 295 297 300 302 304 306 310
277 283 284 282 282 286 288 286 285 286 288 290 293 293 292 293 293 293 295 296 298 299 300 301 302 303 303 302 302 302 302 302 302 304 305 305 305 305 304 304 304 304 304 306 306 306 306 306 305 305 305 305 305 305 305 303 302 302 302 300 297 294 292 291 291 291 290 289 288 286 284 283 285 286 287 288 289 290 291 292 293 295 298 299 300
277 282 286 283 281 283 286 286 286 287 288 289 291 292 291 292 293 294 296 298 299 300 300 301 302 304 304 304 304 304 303 303 304 305 305 305 305 306 306 307 306 306 306 307 307 308 309 309 309 309 308 308 308 308 307 307 306 305 304 303 300 297 294 292 291 290 290 289 288 285 284 283 282 282 282 284 284 285 286 288 288 290 293 296 296
278 284 289 288 283 283 285 286 287 288 288 288 289 289 289 291 292 294 295 296 297 299 300 302 303 303 304 305 305 306 306 305 305 306 306 307 308 309 310 310 310 309 308 308 309 309 311 311 311 311 310 310 310 309 309 309 309 308 307 305 302 299 297 296 295 294 292 291 289 287 284 283 281 280 279 279 279 280 282 284 285 286 287 290 290
279 282 285 286 285 285 288 290 290 289 288 288 288 289 289 290 291 292 294 296 298 300 303 304 304 305 305 306 306 305 305 305 306 307 308 309 309 309 309 310 310 309 309 309 310 311 312 312 312 311 311 310 310 310 310 310 309 309 307 306 303 301 300 299 298 297 295 294 292 289 286 284 282 279 276 274 274 276 278 280 281 282 282 282 282
285 284 282 281 282 285 288 290 291 291 289 289 290 290 290 291 292 293 296 298 300 302 304 305 305 306 305 305 305 306 307 308 309 310 310 309 308 308 309 309 309 310 310 310 311 311 312 312 312 311 310 310 310 310 310 309 308 307 307 306 304 302 301 299 298 297 296 295 294 291 288 286 283 279 276 273 271 273 274 275 276 278 278 277 276
290 290 286 282 283 286 288 287 288 290 290 291 291 291 291 292 294 296 298 299 301 303 304 304 305 305 305 306 307 309 310 310 310 311 311 311 311 311 310 309 309 309 311 311 312 311 311 312 312 312 311 311 311 311 310 309 307 307 306 306 304 302 301 299 299 297 296 294 293 291 290 287 283 279 277 275 273 272 273 272 272 272 273 273 272
289 290 290 286 284 286 289 289 289 290 290 290 291 291 292 294 296 297 298 299 301 303 303 303 304 306 307 309 310 311 311 310 310 312 313 314 314 314 314 313 311 310 311 312 311 311 312 312 312 312 311 311 311 311 310 309 307 307 306 306 304 303 301 300 299 298 296 294 292 291 290 287 283 279 278 277 275 272 271 270 269 269 269 269 269
289 289 290 288 286 287 292 293 291 290 290 290 291 292 293 295 296 297 298 300 301 301 302 303 306 308 308 309 311 312 312 311 311 312 314 314 314 314 314 313 312 311 312 312 311 311 312 312 312 311 311 310 310 310 310 309 308 308 307 306 304 303 301 300 299 298 297 295 293 292 291 288 284 280 279 278 275 272 269 267 266 266 266 266 266
291 292 292 292 291 291 291 291 291 290 290 291 292 294 295 295 295 296 298 299 301 302 303 305 308 309 309 310 311 312 312 311 312 314 315 315 314 314 313 313 313 313 313 313 312 311 311 310 310 311 311 310 310 310 309 308 308 307 306 305 304 302 301 299 298 298 297 295 294 293 291 288 285 282 280 278 276 274 271 268 264 263 262 263 264
292 292 292 292 292 291 290 290 290 290 291 292 294 296 297 297 297 297 298 300 302 304 306 308 310 311 312 312 312 313 312 312 313 315 315 315 315 314 314 314 314 313 313 313 313 312 311 311 311 311 311 310 309 309 308 307 307 306 306 305 303 302 301 299 298 297 296 295 293 292 291 289 286 284 282 280 277 275 273 270 266 263 262 261 262
290 290 290 290 291 291 290 290 290 291 293 294 295 296 297 297 298 298 299 302 305 307 308 309 310 312 313 314 314 314 314 314 315 315 315 315 315 315 315 314 314 314 313 313 313 312 312 311 311 311 310 309 308 308 308 307 307 306 305 305 304 303 301 300 297 296 294 294 293 291 290 288 286 284 283 281 279 276 273 270 267 265 263 261 260
289 289 290 290 291 291 290 290 291 291 292 293 294 295 296 297 298 299 301 304 307 309 309 309 310 312 313 314 314 315 315 315 316 315 315 315 315 315 315 314 313 313 312 312 311 312 311 311 311 310 310 309 308 307 307 307 307 306 305 304 304 303 302 300 297 295 294 293 291 290 289 287 286 284 282 280 279 277 275 271 268 266 263 261 258
290 290 291 290 291 292 293 294 294 294 294 294 295 296 298 300 301 303 304 306 309 310 310 310 311 312 313 313 313 314 315 315 315 315 315 315 315 314 314 313 312 311 311 311 311 312 312 312 312 312 311 310 309 309 308 308 307 306 305 305 304 303 302 300 298 297 295 293 291 289 288 287 286 284 283 280 278 277 275 273 270 268 265 263 260
291 292 293 292 293 294 294 295 296 298 299 299 301 302 303 303 304 304 304 305 308 310 310 311 312 313 313 314 314 314 314 315 315 315 315 314 313 313 313 312 312 313 313 313 313 314 314 314 314 313 312 312 311 311 309 308 308 307 307 306 306 305 304 303 301 299 298 295 292 290 289 288 286 285 283 281 279 277 275 273 271 269 267 265 263
291 292 294 295 296 298 297 297 299 300 302 303 305 306 305 305 306 305 303 304 309 311 312 312 313 314 314 314 314 313 314 314 315 315 314 314 314 314 313 314 314 315 315 315 315 315 315 315 314 314 314 313 312 311 310 309 309 309 309 309 309 308 307 306 305 303 301 298 295 291 289 288 287 285 284 282 279 277 275 273 271 269 267 266 264